Tracking 31027 objects as of 19-Jul-2025
HD Live streaming from Space Station
objects crossing your sky now

ARIANE 5 R/B

Track ARIANE 5 R/B now!


NORAD ID: 27462
Int'l Code: 2002-035C
Perigee: 654.1 km
Apogee: 36,141.6 km
Inclination: 5.1 °
Period: 646.6 minutes
Semi major axis: 24768 km
RCS: 26.2715 m2 (large)
Launch date: July 5, 2002
Source: France (FR)
Launch site: FRENCH GUIANA (FRGUI)

Note: This is a ROCKET BODY
Your satellite tracking list
ARIANE 5 R/B
Track 1 satellite(s)




NASA's NSSDC Master Catalog

Two Line Element Set (TLE):
1 27462U 02035C   25199.56962628 -.00000028  00000-0 -59421-3 0  9997
2 27462   5.1400 230.8605 7163751 182.8459  74.0990  2.22712343187500
Source of the keplerian elements: AFSPC